Location: Unspecified
(0.0000°N, 0.0000°E)
Time: 08:17:47
(UTC+00:00)

ATLAS 5 CENTAUR DEB - Pass Details

Date: 14 December 2025
Orbit: 7978 x 35827 km, 19.5° (Epoch: 10 February)

Event Time Altitude Azimuth Distance (km) Brightness Sun altitude
Rises 18:45:22 0° 287° (WNW) 12,955 ? -11.6°
Reaches altitude 10° 18:52:39 10° 286° (WNW) 12,181 ? -13.2°
Maximum altitude 05:23:23 86° 131° (SE) 22,816 ? -7.3°
Drops below altitude 10° 07:18:58 10° 67° (ENE) 13,175 ? 19.2°
Sets 07:26:47 0° 68° (ENE) 13,608 ? 20.9°
